sat.trackr.live / text

‹ back to catalog

STARLINK-4687

NORAD 53784 · 2022-111M

PAYLOAD ACTIVE UNKNOWN

§ Identity

Operator
Country
US
Launch date
2022-09-11
Launch site
AFETR
Launch vehicle
Mass (kg)
RCS (m²)

Purposes: comms

External: N2YO · Heavens-Above · Gunter

§ Orbital elements

Epoch: 2026-05-24T22:03:07.026048Z

Period
95.44 min
Inclination
53.2125°
Eccentricity
0.0001490
Mean motion
15.08838611 rev/d
Perigee alt
538.7 km
Apogee alt
540.8 km
Semi-major
6,917.9 km
B*
1.0847e-4
RAAN
291.9495°
Arg perigee
97.7132°
Mean anomaly
262.4029°
Rev number
20,520

§ Raw data

STARLINK-46871 53784U 22111M   26144.91883132  .00001439  00000+0  10847-3 0  99952 53784  53.2125 291.9495 0001490  97.7132 262.4029 15.08838611205204

JSON: /api/v1/satellites/53784 · /tle

For live sub-satellite position, see the globe view (requires WebGL).

§ Visibility from observer

Set your observer location to see the next 7 days of passes ≥ 10°. The values pass through the URL so the page stays shareable.

No JS? Fill the form by hand. The geolocation button needs JavaScript.